Date String (YYYY-MM-DD hh:mm:ss) UTC,Instrument flags,absolute air pressure of the measurement (hPa),sample flow rate (lpm),inlet stack bypass flow (lpm),air temperature of the measurement (°C),ambient temperature measured by the external sensor (°C),aerosol sample conditioner tube jacket temperature (°C),OPC LED temperature (°C),internal box temperature (°C),relative humidity of the measurement (%),span deviation,mass concentration of particles derived from Lorenz-Mie calculation of OPC scattering (μg/m³),mass concentration of particles derived from Lorenz-Mie calculation of OPC scattering (μg/m³),mass concentration of particles derived from Lorenz-Mie calculation of OPC scattering (μg/m³)
DateTimeUTC,F1_M11,P_M11,Q1_M11,Q2_M11,T1_M11,T2_M11,T3_M11,T4_M11,T5_M11,U1_M11,ZSPAN_M11,X0_M11,X2_M11,X1_M11
2023-10-19 07:00:00,SystemResetWarning,0833.9,5.00,000.00,028.8,027.4,000.0,037.2,030.5,13.6,0000.0,0011.81,0003.97,0002.78
2023-10-19 07:01:00,SystemResetWarning,0833.9,5.00,000.00,028.8,027.4,000.0,037.2,030.5,13.6,0000.0,0012.14,0003.97,0002.80
2023-10-19 07:02:00,SystemResetWarning,0833.9,5.00,000.00,028.8,027.5,000.0,037.2,030.5,13.6,0000.0,0011.85,0003.90,0002.77
2023-10-19 07:03:00,SystemResetWarning,0833.9,5.00,000.00,028.9,027.5,000.0,037.3,030.5,13.6,0000.0,0011.70,0003.84,0002.73
2023-10-19 07:04:00,SystemResetWarning,0833.9,5.01,000.00,028.9,027.5,000.0,037.3,030.5,13.5,0000.0,0011.67,0003.78,0002.66
2023-10-19 07:05:00,SystemResetWarning,0833.8,5.00,000.00,028.9,027.5,000.0,037.3,030.5,13.5,0000.0,0011.92,0003.77,0002.65
2023-10-19 07:06:00,SystemResetWarning,0833.9,5.00,000.00,028.9,027.5,000.0,037.3,030.5,13.5,0000.0,0012.01,0003.71,0002.64
2023-10-19 07:07:00,SystemResetWarning,0833.8,4.99,000.00,028.9,027.5,000.0,037.3,030.5,13.6,0000.0,0011.96,0003.72,0002.63
2023-10-19 07:08:00,SystemResetWarning,0833.8,4.99,000.00,028.9,027.6,000.0,037.3,030.5,13.5,0000.0,0012.01,0003.75,0002.61
2023-10-19 07:09:00,SystemResetWarning,0833.8,5.02,000.00,028.9,027.6,000.0,037.3,030.6,13.5,0000.0,0012.18,0003.75,0002.57
2023-10-19 07:10:00,SystemResetWarning,0833.8,5.01,000.00,028.9,027.6,000.0,037.3,030.6,13.5,0000.0,0012.14,0003.74,0002.55
2023-10-19 07:11:00,SystemResetWarning,0833.7,5.00,000.00,028.9,027.6,000.0,037.3,030.6,13.4,0000.0,0011.82,0003.72,0002.53
2023-10-19 07:12:00,SystemResetWarning,0833.8,4.99,000.00,028.9,027.6,000.0,037.3,030.6,13.5,0000.0,0011.44,0003.71,0002.49
2023-10-19 07:13:00,SystemResetWarning,0833.8,5.00,000.00,028.9,027.6,000.0,037.3,030.6,13.5,0000.0,0012.12,0003.73,0002.47
2023-10-19 07:14:00,SystemResetWarning,0833.8,5.00,000.00,029.0,027.6,000.0,037.3,030.6,13.5,0000.0,0011.80,0003.70,0002.45
2023-10-19 07:15:00,SystemResetWarning,0833.7,5.01,000.00,029.0,027.6,000.0,037.3,030.6,13.4,0000.0,0011.37,0003.66,0002.43
2023-10-19 07:16:00,SystemResetWarning,0833.7,5.00,000.00,029.0,027.6,000.0,037.4,030.6,13.4,0000.0,0011.92,0003.63,0002.37
2023-10-19 07:17:00,SystemResetWarning,0833.7,5.00,000.00,029.0,027.6,000.0,037.4,030.6,13.4,0000.0,0012.89,0003.66,0002.33
2023-10-19 07:18:00,SystemResetWarning,0833.7,4.99,000.00,029.0,027.6,000.0,037.4,030.6,13.4,0000.0,0013.43,0003.65,0002.29
2023-10-19 07:19:00,SystemResetWarning,0833.7,4.99,000.00,029.0,027.6,000.0,037.4,030.6,13.4,0000.0,0013.81,0003.56,0002.25
2023-10-19 07:20:00,SystemResetWarning,0833.7,5.00,000.00,029.0,027.6,000.0,037.4,030.7,13.3,0000.0,0013.35,0003.50,0002.19
2023-10-19 07:21:00,SystemResetWarning,0833.7,5.00,000.00,029.0,027.7,000.0,037.4,030.7,13.3,0000.0,0012.66,0003.42,0002.14
2023-10-19 07:22:00,SystemResetWarning,0833.7,5.00,000.00,029.0,027.7,000.0,037.4,030.7,13.3,0000.0,0013.18,0003.42,0002.12
2023-10-19 07:23:00,SystemResetWarning,0833.7,5.01,000.00,029.0,027.7,000.0,037.4,030.7,13.3,0000.0,0012.84,0003.40,0002.09
2023-10-19 07:24:00,SystemResetWarning,0833.8,5.01,000.00,029.0,027.7,000.0,037.4,030.7,13.3,0000.0,0012.20,0003.38,0002.07
2023-10-19 07:25:00,SystemResetWarning,0833.7,5.00,000.00,029.0,027.7,000.0,037.4,030.7,13.3,0000.0,0012.29,0003.40,0002.06
2023-10-19 07:26:00,SystemResetWarning,0833.8,5.00,000.00,029.1,027.7,000.0,037.4,030.7,13.3,0000.0,0012.29,0003.41,0002.05
2023-10-19 07:27:00,SystemResetWarning,0833.7,5.00,000.00,029.1,027.7,000.0,037.4,030.7,13.3,0000.0,0011.50,0003.44,0002.07
2023-10-19 07:28:00,SystemResetWarning,0833.7,5.00,000.00,029.1,027.7,000.0,037.4,030.7,13.5,0000.0,0011.45,0003.46,0002.06
2023-10-19 07:29:00,SystemResetWarning,0833.7,4.99,000.00,029.1,027.7,000.0,037.4,030.7,13.5,0000.0,0011.64,0003.42,0002.06
2023-10-19 07:30:00,SystemResetWarning,0833.7,4.99,000.00,029.1,027.7,000.0,037.4,030.7,13.4,0000.0,0012.84,0003.46,0002.04
2023-10-19 07:31:00,SystemResetWarning,0833.7,5.00,000.00,029.1,027.7,000.0,037.4,030.7,13.3,0000.0,0013.24,0003.52,0002.04
2023-10-19 07:32:00,SystemResetWarning,0833.7,5.01,000.00,029.1,027.7,000.0,037.5,030.7,13.4,0000.0,0013.26,0003.53,0002.04
2023-10-19 07:33:00,SystemResetWarning,0833.7,5.00,000.00,029.1,027.7,000.0,037.5,030.7,13.4,0000.0,0013.03,0003.52,0002.02
2023-10-19 07:34:00,SystemResetWarning,0833.7,5.00,000.00,029.1,027.7,000.0,037.5,030.7,13.4,0000.0,0013.85,0003.54,0002.01
2023-10-19 07:35:00,SystemResetWarning,0833.7,5.00,000.00,029.1,027.7,000.0,037.5,030.7,13.3,0000.0,0014.97,0003.57,0002.01
2023-10-19 07:36:00,SystemResetWarning,0833.7,5.00,000.00,029.1,027.7,000.0,037.5,030.7,13.3,0000.0,0015.71,0003.54,0001.99
2023-10-19 07:37:00,SystemResetWarning,0833.7,5.00,000.00,029.1,027.7,000.0,037.5,030.7,13.3,0000.0,0016.28,0003.52,0001.98
2023-10-19 07:38:00,SystemResetWarning,0833.7,5.00,000.00,029.1,027.7,000.0,037.5,030.7,13.3,0000.0,0016.92,0003.49,0001.97
2023-10-19 07:39:00,SystemResetWarning,0833.6,5.01,000.00,029.1,027.7,000.0,037.5,030.7,13.3,0000.0,0016.75,0003.43,0001.96
2023-10-19 07:40:00,SystemResetWarning,0833.6,5.00,000.00,029.1,027.7,000.0,037.5,030.7,13.3,0000.0,0016.13,0003.44,0001.94
2023-10-19 07:41:00,SystemResetWarning,0833.6,4.98,000.00,029.1,027.7,000.0,037.5,030.7,13.3,0000.0,0014.88,0003.38,0001.92
2023-10-19 07:42:00,SystemResetWarning,0833.5,5.01,000.00,029.1,027.6,000.0,037.5,030.7,13.3,0000.0,0014.29,0003.34,0001.91
2023-10-19 07:43:00,SystemResetWarning,0833.5,5.01,000.00,029.1,027.6,000.0,037.5,030.7,13.3,0000.0,0014.21,0003.31,0001.89
2023-10-19 07:44:00,SystemResetWarning,0833.4,4.98,000.00,029.1,027.6,000.0,037.5,030.7,13.3,0000.0,0013.71,0003.30,0001.90
2023-10-19 07:45:00,SystemResetWarning,0833.5,5.00,000.00,029.1,027.6,000.0,037.5,030.7,13.3,0000.0,0012.92,0003.30,0001.88
2023-10-19 07:46:00,SystemResetWarning,0833.5,5.01,000.00,029.1,027.6,000.0,037.5,030.7,13.4,0000.0,0011.89,0003.28,0001.87
2023-10-19 07:47:00,SystemResetWarning,0833.5,5.01,000.00,029.1,027.6,000.0,037.5,030.7,13.5,0000.0,0011.14,0003.29,0001.88
2023-10-19 07:48:00,SystemResetWarning,0833.5,5.00,000.00,029.1,027.6,000.0,037.5,030.7,13.4,0000.0,0010.79,0003.31,0001.88
2023-10-19 07:49:00,SystemResetWarning,0833.4,5.01,000.00,029.1,027.6,000.0,037.5,030.7,13.5,0000.0,0010.52,0003.30,0001.87
2023-10-19 07:50:00,SystemResetWarning,0833.4,4.99,000.00,029.1,027.6,000.0,037.5,030.7,13.6,0000.0,0010.94,0003.30,0001.86
2023-10-19 07:51:00,SystemResetWarning,0833.4,4.99,000.00,029.1,027.6,000.0,037.5,030.7,13.6,0000.0,0010.73,0003.30,0001.85
2023-10-19 07:52:00,SystemResetWarning,0833.4,4.99,000.00,029.1,027.6,000.0,037.5,030.7,13.6,0000.0,0010.40,0003.28,0001.86
2023-10-19 07:53:00,SystemResetWarning,0833.4,5.00,000.00,029.1,027.6,000.0,037.5,030.7,13.7,0000.0,0010.50,0003.26,0001.87
2023-10-19 07:54:00,SystemResetWarning,0833.4,5.00,000.00,029.1,027.6,000.0,037.5,030.7,13.8,0000.0,0010.76,0003.23,0001.89
2023-10-19 07:55:00,SystemResetWarning,0833.4,5.00,000.00,029.0,027.5,000.0,037.5,030.6,13.9,0000.0,0010.93,0003.23,0001.88
2023-10-19 07:56:00,SystemResetWarning,0833.4,5.00,000.00,029.0,027.5,000.0,037.5,030.6,13.9,0000.0,0010.84,0003.21,0001.87
2023-10-19 07:57:00,SystemResetWarning,0833.4,5.00,000.00,029.0,027.5,000.0,037.5,030.6,14.0,0000.0,0011.07,0003.24,0001.90
2023-10-19 07:58:00,SystemResetWarning,0833.4,5.00,000.00,029.0,027.5,000.0,037.5,030.6,14.0,0000.0,0012.01,0003.29,0001.90
2023-10-19 07:59:00,SystemResetWarning,0833.4,5.00,000.00,029.0,027.5,000.0,037.5,030.6,13.8,0000.0,0012.84,0003.32,0001.90
